Hourly Weather Ruzhky

Today, 20 April, Tuesday

Time Temperature Precipitation Wind Pressure Humidity
00:00 +6°C° 0 mm 2 mps 739 mmHg 83%
01:00 +5°C° 0 mm 2 mps 739 mmHg 86%
02:00 +5°C° 0 mm 2 mps 739 mmHg 88%
03:00 +5°C° 0 mm 2 mps 738 mmHg 89%
04:00 +5°C° 0 mm 2 mps 738 mmHg 90%
05:00 +5°C° 0 mm 2 mps 738 mmHg 90%
06:00 +5°C° 0 mm 3 mps 738 mmHg 88%
07:00 +5°C° 0 mm 3 mps 738 mmHg 85%
08:00 +7°C° 0 mm 3 mps 738 mmHg 82%
09:00 +8°C° 0.1 mm 3 mps 738 mmHg 76%
10:00 +8°C° 0.1 mm 4 mps 737 mmHg 69%
11:00 +10°C° 0.1 mm 4 mps 737 mmHg 63%
12:00 +11°C° 0.1 mm 4 mps 736 mmHg 60%
13:00 +11°C° 0.1 mm 4 mps 736 mmHg 58%
14:00 +11°C° 0.1 mm 4 mps 736 mmHg 55%
15:00 +11°C° 0.1 mm 3 mps 736 mmHg 58%
16:00 +10°C° 0.1 mm 3 mps 736 mmHg 62%
17:00 +10°C° 0.1 mm 3 mps 736 mmHg 65%
18:00 +9°C° 0.1 mm 3 mps 736 mmHg 70%
19:00 +8°C° 0.1 mm 2 mps 736 mmHg 75%
20:00 +7°C° 0.1 mm 2 mps 736 mmHg 80%
21:00 +7°C° 0 mm 2 mps 736 mmHg 82%
22:00 +6°C° 0 mm 2 mps 736 mmHg 84%
23:00 +6°C° 0 mm 2 mps 736 mmHg 86%

Tomorrow, 21 April, Wednesday

Time Temperature Precipitation Wind Pressure Humidity
00:00 +5°C° 0 mm 2 mps 736 mmHg 87%
01:00 +5°C° 0 mm 2 mps 736 mmHg 89%
02:00 +5°C° 0 mm 2 mps 736 mmHg 90%
03:00 +5°C° 0 mm 2 mps 736 mmHg 89%
04:00 +5°C° 0 mm 2 mps 737 mmHg 89%
05:00 +5°C° 0 mm 2 mps 737 mmHg 88%
06:00 +6°C° 0 mm 2 mps 737 mmHg 83%
07:00 +7°C° 0 mm 3 mps 737 mmHg 77%
08:00 +8°C° 0 mm 3 mps 738 mmHg 72%
09:00 +9°C° 0.1 mm 3 mps 738 mmHg 68%
10:00 +10°C° 0.1 mm 3 mps 738 mmHg 64%
11:00 +10°C° 0.1 mm 4 mps 738 mmHg 60%
12:00 +11°C° 0.1 mm 4 mps 738 mmHg 61%
13:00 +11°C° 0.1 mm 4 mps 738 mmHg 62%
14:00 +10°C° 0.1 mm 5 mps 738 mmHg 63%
15:00 +11°C° 0 mm 4 mps 738 mmHg 64%
16:00 +11°C° 0 mm 4 mps 738 mmHg 66%
17:00 +11°C° 0 mm 3 mps 738 mmHg 67%
18:00 +10°C° 0.3 mm 3 mps 738 mmHg 72%
19:00 +10°C° 0.3 mm 3 mps 738 mmHg 77%
20:00 +9°C° 0.3 mm 3 mps 738 mmHg 82%
21:00 +8°C° 0 mm 3 mps 738 mmHg 83%
22:00 +8°C° 0 mm 3 mps 738 mmHg 83%
23:00 +7°C° 0 mm 4 mps 739 mmHg 83%

Day after tomorrow, 22 April, Thursday

Time Temperature Precipitation Wind Pressure Humidity
00:00 +7°C° 0 mm 4 mps 739 mmHg 83%
01:00 +8°C° 0 mm 3 mps 739 mmHg 84%
02:00 +7°C° 0 mm 3 mps 739 mmHg 84%
03:00 +7°C° 0 mm 3 mps 739 mmHg 85%
04:00 +7°C° 0 mm 3 mps 739 mmHg 86%
05:00 +7°C° 0 mm 3 mps 739 mmHg 87%
06:00 +7°C° 0 mm 4 mps 739 mmHg 81%
07:00 +8°C° 0 mm 4 mps 740 mmHg 76%
08:00 +11°C° 0 mm 4 mps 740 mmHg 70%
09:00 +12°C° 0.1 mm 5 mps 740 mmHg 65%
10:00 +13°C° 0.1 mm 5 mps 740 mmHg 61%
11:00 +15°C° 0.1 mm 6 mps 740 mmHg 56%
12:00 +14°C° 0.3 mm 5 mps 740 mmHg 58%
13:00 +14°C° 0.3 mm 5 mps 740 mmHg 61%
14:00 +14°C° 0.3 mm 5 mps 740 mmHg 63%
15:00 +14°C° 0.3 mm 5 mps 740 mmHg 66%
16:00 +13°C° 0.3 mm 4 mps 739 mmHg 68%
17:00 +13°C° 0.3 mm 3 mps 739 mmHg 71%
18:00 +12°C° 0.4 mm 4 mps 740 mmHg 76%
19:00 +10°C° 0.4 mm 5 mps 740 mmHg 82%
20:00 +8°C° 0.4 mm 6 mps 740 mmHg 88%
21:00 +8°C° 0.2 mm 5 mps 739 mmHg 88%
22:00 +8°C° 0.2 mm 5 mps 739 mmHg 88%
23:00 +8°C° 0.2 mm 4 mps 739 mmHg 88%

23 April, Friday

Time Temperature Precipitation Wind Pressure Humidity
00:00 +7°C° 0 mm 4 mps 739 mmHg 89%
01:00 +6°C° 0 mm 4 mps 739 mmHg 91%
02:00 +6°C° 0 mm 4 mps 739 mmHg 93%
03:00 +5°C° 0.3 mm 4 mps 740 mmHg 91%
04:00 +5°C° 0.3 mm 4 mps 740 mmHg 89%
05:00 +4°C° 0.3 mm 4 mps 740 mmHg 86%
06:00 +4°C° 0.3 mm 3 mps 740 mmHg 84%
07:00 +4°C° 0.3 mm 3 mps 741 mmHg 82%
08:00 +4°C° 0.3 mm 3 mps 741 mmHg 80%
09:00 +5°C° 0.1 mm 3 mps 741 mmHg 73%
10:00 +6°C° 0.1 mm 4 mps 741 mmHg 66%
11:00 +7°C° 0.1 mm 4 mps 741 mmHg 60%
12:00 +7°C° 0 mm 4 mps 741 mmHg 55%
13:00 +8°C° 0 mm 4 mps 741 mmHg 51%
14:00 +8°C° 0 mm 4 mps 741 mmHg 46%
15:00 +8°C° 0.1 mm 5 mps 741 mmHg 47%
16:00 +8°C° 0.1 mm 5 mps 741 mmHg 47%
17:00 +8°C° 0.1 mm 5 mps 741 mmHg 48%
18:00 +6°C° 0 mm 4 mps 741 mmHg 55%
19:00 +5°C° 0 mm 3 mps 742 mmHg 62%
20:00 +4°C° 0 mm 2 mps 742 mmHg 69%
21:00 +4°C° 0 mm 2 mps 742 mmHg 71%
22:00 +3°C° 0 mm 2 mps 742 mmHg 73%
23:00 +2°C° 0 mm 2 mps 742 mmHg 75%

24 April, Saturday

Time Temperature Precipitation Wind Pressure Humidity
00:00 +1°C° 0 mm 3 mps 741 mmHg 76%
01:00 0°C° 0 mm 4 mps 741 mmHg 77%
02:00 0°C° 0 mm 4 mps 741 mmHg 79%
03:00 0°C° 0.5 mm 5 mps 741 mmHg 83%
04:00 0°C° 0.5 mm 5 mps 741 mmHg 88%
05:00 -1°C° 0.5 mm 6 mps 741 mmHg 93%
06:00 -1°C° 0 mm 6 mps 742 mmHg 86%
07:00 0°C° 0 mm 7 mps 742 mmHg 80%
08:00 0°C° 0 mm 7 mps 743 mmHg 73%
09:00 +2°C° 0 mm 7 mps 743 mmHg 66%
10:00 +3°C° 0 mm 7 mps 743 mmHg 58%
11:00 +4°C° 0 mm 7 mps 743 mmHg 51%
12:00 +5°C° 0 mm 7 mps 743 mmHg 50%
13:00 +5°C° 0 mm 6 mps 743 mmHg 48%
14:00 +7°C° 0 mm 6 mps 743 mmHg 47%
15:00 +7°C° 0 mm 6 mps 743 mmHg 48%
16:00 +7°C° 0 mm 6 mps 742 mmHg 49%
17:00 +7°C° 0 mm 5 mps 742 mmHg 49%
18:00 +5°C° 0 mm 4 mps 742 mmHg 55%
19:00 +4°C° 0 mm 3 mps 742 mmHg 60%
20:00 +3°C° 0 mm 3 mps 743 mmHg 65%
21:00 +2°C° 0 mm 3 mps 742 mmHg 66%
22:00 +2°C° 0 mm 3 mps 742 mmHg 67%
23:00 +2°C° 0 mm 3 mps 742 mmHg 68%

25 April, Sunday

Time Temperature Precipitation Wind Pressure Humidity
00:00 +2°C° 0 mm 3 mps 742 mmHg 68%
01:00 +1°C° 0 mm 4 mps 742 mmHg 68%
02:00 +1°C° 0 mm 4 mps 741 mmHg 68%
03:00 +1°C° 0 mm 5 mps 741 mmHg 73%
04:00 +1°C° 0 mm 5 mps 741 mmHg 77%
05:00 +1°C° 0 mm 5 mps 741 mmHg 82%
06:00 +2°C° 0.1 mm 5 mps 741 mmHg 79%
07:00 +2°C° 0.1 mm 5 mps 741 mmHg 77%
08:00 +3°C° 0.1 mm 5 mps 741 mmHg 74%
09:00 +5°C° 0 mm 5 mps 741 mmHg 66%
10:00 +5°C° 0 mm 4 mps 741 mmHg 59%
11:00 +6°C° 0 mm 4 mps 741 mmHg 51%
12:00 +7°C° 0 mm 4 mps 741 mmHg 49%
13:00 +7°C° 0 mm 4 mps 741 mmHg 47%
14:00 +8°C° 0 mm 4 mps 740 mmHg 45%
15:00 +8°C° 0 mm 4 mps 740 mmHg 43%
16:00 +9°C° 0 mm 3 mps 740 mmHg 42%
17:00 +8°C° 0 mm 3 mps 740 mmHg 40%
18:00 +7°C° 0 mm 3 mps 740 mmHg 46%
19:00 +5°C° 0 mm 2 mps 740 mmHg 52%
20:00 +4°C° 0 mm 2 mps 740 mmHg 59%
21:00 +3°C° 0 mm 2 mps 740 mmHg 61%
22:00 +4°C° 0 mm 1 mps 740 mmHg 63%
23:00 +3°C° 0 mm 1 mps 740 mmHg 65%
Show more